Location: Pabrico
(37.5827°N, 122.0063°W)
Time: 11:15:33
(UTC+00:00)

USA 308 - Pass Details

Date: 13 April 2024
Orbit: 493 x 493 km, 54.0° (Epoch: 14 March)

Event Time Altitude Azimuth Distance (km) Brightness Sun altitude
Exits shadow 12:32:13 18° 219° (SW) 1,223 4.1 -12.7°
Maximum altitude 12:34:56 77° 135° (SE) 503 2.6 -12.2°
Drops below altitude 10° 12:38:50 10° 49° (NE) 1,695 6.6 -11.5°
Sets 12:41:03 0° 48° (NE) 2,568 7.7 -11.1°
